When you browse on this site, cookies collect data to enhance your experience and personalize the content and advertising you see.
Visit our Privacy Policy to learn more. By continuing to use the site, you agree to this use of cookies and data.
  • In Germany
  • List of Countries
  • For 7 days
  • Water Temperature
  • Weather Map
  • Weather Widgets
  • user-avatar
    Login

    Hourly Weather Etchmiadzin

    Today, 22 September, Sunday

    Time Temperature Precipitation Wind Pressure Humidity
    00:00 +15°C° 0 mm 5 mps 685 mmHg 39%
    01:00 +15°C° 0 mm 5 mps 685 mmHg 39%
    02:00 +14°C° 0 mm 5 mps 686 mmHg 38%
    03:00 +13°C° 0 mm 4 mps 686 mmHg 40%
    04:00 +12°C° 0 mm 4 mps 686 mmHg 41%
    05:00 +12°C° 0 mm 4 mps 687 mmHg 42%
    06:00 +11°C° 0 mm 3 mps 687 mmHg 44%
    07:00 +13°C° 0 mm 4 mps 688 mmHg 40%
    08:00 +15°C° 0 mm 4 mps 688 mmHg 36%
    09:00 +17°C° 0 mm 4 mps 689 mmHg 32%
    10:00 +19°C° 0 mm 4 mps 689 mmHg 29%
    11:00 +20°C° 0 mm 3 mps 689 mmHg 26%
    12:00 +21°C° 0 mm 3 mps 689 mmHg 23%
    13:00 +23°C° 0 mm 2 mps 689 mmHg 21%
    14:00 +24°C° 0 mm 2 mps 689 mmHg 19%
    15:00 +24°C° 0 mm 1 mps 688 mmHg 18%
    16:00 +22°C° 0 mm 1 mps 688 mmHg 20%
    17:00 +21°C° 0 mm 1 mps 688 mmHg 23%
    18:00 +19°C° 0 mm 1 mps 687 mmHg 25%
    19:00 +18°C° 0 mm 1 mps 688 mmHg 28%
    20:00 +17°C° 0 mm 2 mps 688 mmHg 32%
    21:00 +16°C° 0 mm 2 mps 688 mmHg 35%
    22:00 +15°C° 0 mm 2 mps 688 mmHg 37%
    23:00 +15°C° 0 mm 2 mps 688 mmHg 39%

    Tomorrow, 23 September, Monday

    Time Temperature Precipitation Wind Pressure Humidity
    00:00 +14°C° 0 mm 2 mps 688 mmHg 41%
    01:00 +13°C° 0 mm 1 mps 687 mmHg 43%
    02:00 +13°C° 0 mm 1 mps 687 mmHg 45%
    03:00 +12°C° 0 mm 1 mps 687 mmHg 46%
    04:00 +12°C° 0 mm 1 mps 687 mmHg 47%
    05:00 +12°C° 0 mm 1 mps 687 mmHg 48%
    06:00 +11°C° 0 mm 1 mps 686 mmHg 49%
    07:00 +14°C° 0 mm 1 mps 687 mmHg 43%
    08:00 +16°C° 0 mm 1 mps 687 mmHg 37%
    09:00 +20°C° 0 mm 1 mps 687 mmHg 30%
    10:00 +20°C° 0 mm 2 mps 687 mmHg 28%
    11:00 +23°C° 0 mm 2 mps 687 mmHg 26%
    12:00 +24°C° 0 mm 2 mps 687 mmHg 24%
    13:00 +25°C° 0 mm 2 mps 686 mmHg 23%
    14:00 +26°C° 0 mm 2 mps 686 mmHg 22%
    15:00 +27°C° 0 mm 2 mps 686 mmHg 21%
    16:00 +25°C° 0 mm 1 mps 685 mmHg 24%
    17:00 +23°C° 0 mm 1 mps 685 mmHg 28%
    18:00 +19°C° 0 mm 0 mps 685 mmHg 32%
    19:00 +20°C° 0 mm 1 mps 685 mmHg 32%
    20:00 +20°C° 0 mm 1 mps 685 mmHg 33%
    21:00 +19°C° 0 mm 1 mps 686 mmHg 33%
    22:00 +18°C° 0 mm 1 mps 686 mmHg 34%
    23:00 +18°C° 0 mm 1 mps 685 mmHg 35%

    Day after tomorrow, 24 September, Tuesday

    Time Temperature Precipitation Wind Pressure Humidity
    00:00 +16°C° 0 mm 1 mps 685 mmHg 36%
    01:00 +16°C° 0 mm 1 mps 685 mmHg 39%
    02:00 +15°C° 0 mm 1 mps 685 mmHg 42%
    03:00 +15°C° 0 mm 2 mps 685 mmHg 45%
    04:00 +14°C° 0 mm 1 mps 685 mmHg 47%
    05:00 +14°C° 0 mm 1 mps 685 mmHg 48%
    06:00 +13°C° 0 mm 1 mps 685 mmHg 50%
    07:00 +16°C° 0 mm 1 mps 686 mmHg 43%
    08:00 +20°C° 0 mm 1 mps 687 mmHg 36%
    09:00 +23°C° 0 mm 1 mps 687 mmHg 29%
    10:00 +24°C° 0 mm 1 mps 687 mmHg 26%
    11:00 +26°C° 0 mm 2 mps 687 mmHg 22%
    12:00 +27°C° 0 mm 2 mps 687 mmHg 19%
    13:00 +28°C° 0 mm 2 mps 687 mmHg 17%
    14:00 +28°C° 0 mm 2 mps 686 mmHg 15%
    15:00 +29°C° 0 mm 2 mps 686 mmHg 14%
    16:00 +27°C° 0 mm 2 mps 686 mmHg 16%
    17:00 +25°C° 0 mm 2 mps 685 mmHg 19%
    18:00 +23°C° 0 mm 2 mps 685 mmHg 21%
    19:00 +21°C° 0 mm 2 mps 685 mmHg 22%
    20:00 +21°C° 0 mm 2 mps 686 mmHg 22%
    21:00 +20°C° 0 mm 2 mps 686 mmHg 22%
    22:00 +19°C° 0 mm 2 mps 686 mmHg 25%
    23:00 +18°C° 0 mm 2 mps 685 mmHg 27%

    25 September, Wednesday

    Time Temperature Precipitation Wind Pressure Humidity
    00:00 +18°C° 0 mm 1 mps 685 mmHg 30%
    01:00 +18°C° 0 mm 1 mps 685 mmHg 33%
    02:00 +16°C° 0 mm 1 mps 685 mmHg 36%
    03:00 +15°C° 0 mm 1 mps 685 mmHg 39%
    04:00 +15°C° 0 mm 1 mps 685 mmHg 40%
    05:00 +15°C° 0 mm 1 mps 685 mmHg 41%
    06:00 +14°C° 0 mm 1 mps 685 mmHg 42%
    07:00 +18°C° 0 mm 1 mps 685 mmHg 35%
    08:00 +21°C° 0 mm 1 mps 686 mmHg 28%
    09:00 +24°C° 0 mm 1 mps 686 mmHg 22%
    10:00 +26°C° 0 mm 1 mps 686 mmHg 20%
    11:00 +27°C° 0 mm 2 mps 686 mmHg 17%
    12:00 +29°C° 0 mm 2 mps 686 mmHg 15%
    13:00 +29°C° 0 mm 2 mps 686 mmHg 14%
    14:00 +30°C° 0 mm 2 mps 686 mmHg 13%
    15:00 +31°C° 0 mm 2 mps 685 mmHg 12%
    16:00 +29°C° 0 mm 2 mps 685 mmHg 14%
    17:00 +27°C° 0 mm 2 mps 685 mmHg 16%
    18:00 +25°C° 0 mm 2 mps 685 mmHg 18%
    19:00 +24°C° 0 mm 2 mps 685 mmHg 18%
    20:00 +23°C° 0 mm 2 mps 685 mmHg 19%
    21:00 +22°C° 0 mm 1 mps 685 mmHg 20%
    22:00 +22°C° 0 mm 1 mps 685 mmHg 20%
    23:00 +22°C° 0 mm 1 mps 685 mmHg 21%

    26 September, Thursday

    Time Temperature Precipitation Wind Pressure Humidity
    00:00 +22°C° 0 mm 1 mps 685 mmHg 21%
    01:00 +21°C° 0 mm 1 mps 685 mmHg 22%
    02:00 +21°C° 0 mm 1 mps 685 mmHg 23%
    03:00 +20°C° 0 mm 1 mps 685 mmHg 24%
    04:00 +19°C° 0 mm 1 mps 685 mmHg 25%
    05:00 +19°C° 0 mm 1 mps 685 mmHg 26%
    06:00 +18°C° 0 mm 1 mps 685 mmHg 27%
    07:00 +21°C° 0 mm 1 mps 686 mmHg 24%
    08:00 +24°C° 0 mm 1 mps 687 mmHg 21%
    09:00 +27°C° 0 mm 1 mps 688 mmHg 17%
    10:00 +28°C° 0 mm 1 mps 687 mmHg 16%
    11:00 +30°C° 0 mm 2 mps 687 mmHg 16%
    12:00 +31°C° 0 mm 2 mps 687 mmHg 15%
    13:00 +32°C° 0 mm 2 mps 687 mmHg 14%
    14:00 +34°C° 0 mm 3 mps 687 mmHg 13%
    15:00 +34°C° 0 mm 3 mps 686 mmHg 12%
    16:00 +31°C° 0 mm 2 mps 686 mmHg 15%
    17:00 +28°C° 0 mm 2 mps 685 mmHg 17%
    18:00 +26°C° 0 mm 1 mps 685 mmHg 20%
    19:00 +25°C° 0 mm 1 mps 685 mmHg 20%
    20:00 +24°C° 0 mm 2 mps 685 mmHg 21%
    21:00 +23°C° 0 mm 2 mps 685 mmHg 22%
    22:00 +23°C° 0 mm 2 mps 685 mmHg 23%
    23:00 +21°C° 0 mm 2 mps 685 mmHg 24%

    27 September, Friday

    Time Temperature Precipitation Wind Pressure Humidity
    00:00 +21°C° 0 mm 1 mps 685 mmHg 26%
    01:00 +20°C° 0 mm 2 mps 685 mmHg 28%
    02:00 +19°C° 0 mm 2 mps 685 mmHg 30%
    03:00 +19°C° 0 mm 2 mps 685 mmHg 32%
    04:00 +19°C° 0 mm 1 mps 685 mmHg 34%
    05:00 +19°C° 0 mm 1 mps 685 mmHg 37%
    06:00 +18°C° 0 mm 1 mps 685 mmHg 40%
    07:00 +21°C° 0 mm 1 mps 685 mmHg 34%
    08:00 +24°C° 0 mm 1 mps 686 mmHg 28%
    09:00 +27°C° 0 mm 1 mps 686 mmHg 22%
    10:00 +28°C° 0 mm 2 mps 686 mmHg 20%
    11:00 +30°C° 0 mm 2 mps 686 mmHg 19%
    12:00 +31°C° 0 mm 2 mps 686 mmHg 17%
    13:00 +33°C° 0 mm 3 mps 686 mmHg 16%
    14:00 +34°C° 0 mm 3 mps 685 mmHg 15%
    15:00 +35°C° 0 mm 4 mps 685 mmHg 14%
    16:00 +33°C° 0 mm 3 mps 684 mmHg 16%
    17:00 +30°C° 0 mm 3 mps 684 mmHg 18%
    18:00 +28°C° 0 mm 3 mps 684 mmHg 20%
    19:00 +27°C° 0 mm 3 mps 684 mmHg 21%
    20:00 +26°C° 0 mm 3 mps 684 mmHg 23%
    21:00 +25°C° 0 mm 3 mps 684 mmHg 24%
    22:00 +24°C° 0 mm 3 mps 684 mmHg 28%
    23:00 +23°C° 0 mm 2 mps 684 mmHg 31%
    Show more